Location: Unspecified
(0.0000°N, 0.0000°E)
Time: 04:13:20
(UTC+00:00)

NOSS 3-1 (C) - Visible Passes

Search period start: 25 May 2019 00:00
Search period end: 04 June 2019 00:00
Orbit: 779 x 1429 km, 63.4° (Epoch: 14 May)

Date Brightness Start Highest point End Pass type
(mag) Time Alt. Az. Time Alt. Az. Time Alt. Az.
25 May 4.8 20:16:12 10° N 20:22:43 43° NE 20:22:43 43° NE visible
25 May 6.3 22:08:15 10° WNW 22:10:11 16° WNW 22:10:11 16° WNW visible
26 May 5.1 19:32:04 10° NNE 19:39:07 28° ENE 19:39:33 28° ENE visible
26 May 5.4 21:21:41 10° NW 21:27:00 36° WNW 21:27:00 36° WNW visible
27 May 5.7 18:49:15 10° NE 18:53:44 15° ENE 18:56:27 13° E visible
27 May 4.3 20:35:56 10° NNW 20:43:54 74° WNW 20:43:54 74° WNW visible
28 May 4.2 19:50:46 10° NNW 19:59:20 64° ENE 20:00:51 56° ESE visible
28 May 6.2 21:44:21 10° WNW 21:48:19 18° W 21:48:19 18° W visible
29 May 4.8 19:06:13 10° N 19:14:01 38° ENE 19:17:52 26° ESE visible
29 May 5.3 20:57:09 10° NW 21:04:51 35° WSW 21:05:20 35° WSW visible
30 May 5.5 18:22:31 10° NNE 18:28:40 21° ENE 18:34:52 10° ESE visible
30 May 4.6 20:10:59 10° NW 20:19:32 60° WSW 20:22:23 43° SSW visible
31 May 4.2 19:25:30 10° NNW 19:34:13 84° ENE 19:39:29 28° SSE visible
31 May 6.3 21:21:15 10° W 21:25:10 14° WSW 21:26:57 13° SW visible
01 Jun 4.5 18:40:36 10° N 18:48:54 50° ENE 18:56:36 13° SE visible
01 Jun 5.8 20:32:53 10° WNW 20:39:46 26° WSW 20:44:05 18° SSW visible
02 Jun 5.1 19:46:14 10° NW 19:54:25 45° WSW 20:01:13 15° S visible
03 Jun 4.5 19:00:25 10° NNW 19:09:06 75° WSW 19:17:49 10° SSE visible
